Temperature
12 12 11 12 11 11 11 11 12 12 12 11 11 10 10 10 11 10 10 11 11 11 11 11 11 11 11 11 11 11 11 11 11 11 11 11 11 11
12 11 11 11 11 11 11 11 11 11 11 11 10 10 10 10 10 10 10 10 10 10 11 11 11 11 11 11 11 11 11 10 10 10 10 10 10 11
11 11 11 11 11 11 11 11 10 10 10 10 10 10 10 10 10 10 10 10 10 10 10 10 10 10 10 10 10 10 10 10 10 10 10 10 10 10
11 11 11 11 11 10 10 10 10 10 10 10 10 10 9 9 10 10 9 9 9 10 10 10 10 10 10 10 10 10 10 10 10 10 10 10 10 10
10 10 10 10 10 10 10 10 10 10 10 10 10 9 9 9 9 9 9 9 9 9 9 9 9 9 9 9 9 9 9 9 9 9 9 9 9 9
10 10 10 10 10 10 10 10 9 9 9 9 9 9 9 9 9 9 9 9 9 9 9 9 9 9 9 9 9 9 9 9 9 9 9 9 9 9
10 10 10 10 10 10 10 9 9 9 9 9 9 9 9 9 9 9 8 8 8 8 8 8 8 8 9 9 9 9 9 9 9 9 9 9 9 9
10 10 10 10 10 10 10 10 10 9 9 9 9 9 9 9 9 8 8 8 8 8 8 8 8 8 8 8 8 9 8 8 8 8 8 8 8 8
10 9 9 10 10 9 9 9 9 9 9 9 9 9 9 8 8 8 8 8 8 7 7 7 7 7 8 8 8 8 8 8 8 8 8 8 8 8
9 9 9 9 9 9 9 9 9 9 9 9 9 8 8 8 8 8 8 7 7 7 7 7 7 7 7 7 8 8 8 8 8 8 8 8 8 8
9 9 9 9 9 9 9 9 8 8 8 9 8 8 8 8 8 7 7 7 7 7 7 7 7 6 7 7 7 7 7 8 8 8 8 8 8 8
9 9 9 9 9 9 8 8 8 8 8 8 8 8 8 8 8 7 7 7 7 7 7 7 6 6 6 7 7 7 7 7 7 7 7 7 7 7
8 8 8 8 8 8 8 8 8 8 8 7 7 7 7 7 7 7 7 6 6 6 6 6 6 6 6 6 6 6 6 7 7 7 7 7 7 7
8 8 8 8 8 8 8 8 8 8 7 7 7 7 7 7 7 7 6 6 6 6 6 6 6 6 6 6 6 6 6 6 6 6 6 7 7 7
8 8 8 8 8 7 7 7 7 7 7 7 7 7 7 7 6 6 6 6 6 6 6 6 6 6 6 5 6 6 6 6 6 6 6 6 6 6
7 7 7 7 7 7 7 7 6 6 6 6 6 6 6 6 6 6 6 6 6 6 6 6 6 6 5 5 5 5 5 5 6 6 6 6 6 6
7 7 7 7 7 6 6 6 6 6 6 6 6 6 6 6 5 5 5 5 5 5 5 5 5 5 5 5 5 5 5 5 5 6 6 6 6 6
7 6 6 6 6 6 6 6 6 6 6 6 5 5 5 5 5 5 5 5 5 5 5 5 5 5 5 5 5 5 5 5 5 5 5 5 5 6
6 6 6 6 6 6 6 6 6 6 6 5 5 5 5 5 5 5 5 5 5 5 5 5 4 4 4 5 5 5 5 5 5 5 5 5 5 5
6 6 6 6 6 6 5 5 5 5 5 5 5 5 5 5 5 4 4 4 4 4 4 4 4 4 4 4 4 5 5 5 5 5 5 5 5 5
5 5 5 5 5 5 5 5 5 5 5 5 5 4 4 4 4 4 4 4 4 4 4 4 4 4 4 4 4 4 4 5 5 5 5 5 4 4
5 5 5 5 5 5 5 5 5 4 4 4 4 4 4 4 4 4 4 4 4 4 4 4 4 4 4 4 4 4 4 4 5 5 4 4 4 4
5 5 5 5 5 4 4 4 4 4 4 4 4 4 4 4 3 3 3 3 3 3 3 3 3 3 3 3 3 3 4 4 4 4 4 4 4 4
Wind_Speed
2 2 2 1 1 1 2 2 3 2 2 1 1 0 0 0 1 2 2 4 3 3 4 4 4 4 4 4 5 5 4 3 3 3 3 4 4 4
2 3 2 2 1 2 2 2 3 3 2 1 1 1 0 1 1 2 2 2 1 2 3 4 4 4 4 4 4 5 4 3 2 3 3 4 4 4
3 3 3 3 2 2 2 2 2 2 2 2 1 1 1 1 1 2 2 2 1 2 3 3 4 4 4 4 4 5 5 4 3 3 4 4 4 4
4 3 4 3 4 3 2 3 2 3 3 2 2 2 2 2 2 2 2 2 2 2 1 2 3 3 3 3 3 4 4 4 3 4 4 4 4 4
4 4 4 4 5 4 4 3 3 2 2 3 2 1 2 1 2 2 2 2 2 0 1 1 2 2 3 3 3 3 3 3 3 4 4 4 4 4
4 4 4 4 5 4 4 4 3 3 3 3 2 2 2 2 2 2 2 2 2 2 2 2 1 1 2 2 2 3 3 3 3 3 3 3 4 4
4 3 3 2 2 2 3 4 4 3 3 3 3 3 2 2 2 2 2 2 2 2 2 2 2 2 2 2 2 2 2 3 3 3 3 3 4 4
4 3 3 3 3 3 3 3 4 5 4 4 4 4 3 2 2 3 3 3 2 2 3 3 2 2 2 2 1 1 2 3 3 3 4 4 4 4
3 3 3 2 3 4 4 6 4 4 4 5 5 4 4 3 3 4 4 4 4 2 3 3 3 3 2 1 1 2 3 3 3 4 4 4 5 5
3 3 3 3 2 3 3 4 4 4 4 5 5 4 4 3 4 4 4 4 3 2 3 4 3 3 3 3 1 2 3 4 4 4 5 5 6 6
3 2 2 2 1 2 4 4 4 3 3 2 3 3 3 2 3 3 3 3 4 3 3 3 3 4 4 4 2 3 4 4 5 5 5 6 7 7
2 3 2 1 1 2 4 4 4 4 3 3 3 3 3 3 4 5 4 4 4 3 2 3 3 3 3 3 2 3 4 5 6 6 6 6 6 5
3 2 2 2 2 3 4 3 3 4 4 4 3 3 3 3 3 4 4 4 5 4 2 3 4 4 4 4 4 4 4 4 4 5 6 6 6 6
3 3 2 4 4 3 3 2 2 3 3 3 3 3 3 3 3 3 4 4 5 5 4 4 4 4 5 5 4 4 4 4 4 4 4 4 6 8
3 2 2 4 4 4 3 3 3 3 3 3 3 3 3 3 3 3 4 4 4 5 5 5 5 5 5 6 6 5 5 4 4 4 4 3 4 4
4 4 5 5 5 3 3 4 3 3 4 4 4 3 3 3 3 3 3 3 3 4 4 5 5 6 6 7 6 6 5 4 4 5 4 4 4 5
4 3 3 4 4 4 4 4 3 4 4 4 4 4 3 3 3 3 4 4 4 4 3 3 4 5 5 6 6 6 6 5 5 5 5 5 5 5
4 5 5 4 4 4 4 4 4 4 4 4 4 4 4 4 4 4 4 4 5 5 5 4 4 4 4 5 5 7 6 6 5 5 5 5 6 5
5 5 5 5 5 5 4 4 4 4 4 4 4 5 5 4 4 4 4 5 5 5 5 5 5 5 6 6 5 5 6 6 5 5 5 6 6 5
5 5 5 5 5 5 4 4 4 4 4 4 5 5 4 5 5 5 5 5 5 5 5 5 5 6 7 7 6 5 7 6 5 6 5 5 6 5
5 5 5 5 5 5 5 4 4 5 5 5 5 5 5 5 5 5 5 6 6 5 6 5 5 6 6 5 6 5 4 5 6 5 5 5 5 5
4 4 4 4 5 4 4 4 5 5 5 5 5 5 5 5 6 6 6 6 6 6 6 5 4 4 4 6 7 7 5 3 4 5 6 6 5 5
5 4 4 4 4 4 4 5 5 5 5 5 5 5 5 5 5 5 6 6 6 6 5 5 4 4 5 5 6 6 6 5 4 4 4 5 7 8
Wind_Direction
227 222 220 205 236 249 260 263 269 260 255 263 254 219 279 10 23 305 352 61 37 13 358 351 356 0 357 356 349 343 332 324 331 347 345 344 347 350
235 232 218 223 228 238 244 256 272 278 272 280 268 244 273 283 331 308 344 65 37 18 7 5 4 2 358 360 358 358 358 352 353 358 352 349 348 353
222 229 226 223 225 230 234 239 250 257 248 257 266 249 234 256 287 289 301 293 43 58 23 12 7 2 1 2 3 3 12 19 18 7 352 346 344 349
230 232 233 222 227 234 228 232 238 246 246 246 248 244 258 262 278 281 289 296 312 78 20 3 357 350 345 351 357 357 358 2 3 360 356 350 346 344
234 235 239 230 228 228 225 230 237 240 244 240 250 254 260 261 263 275 280 300 302 280 258 292 328 336 335 336 344 346 343 347 349 348 347 344 339 336
235 240 247 239 241 237 229 228 228 229 232 233 237 237 242 254 250 259 265 275 287 288 311 312 302 298 315 324 334 332 326 330 335 339 342 338 329 322
230 231 249 269 308 268 252 238 228 225 223 230 237 240 234 237 247 248 262 275 279 284 289 293 290 287 274 271 294 325 317 316 316 315 314 314 314 314
236 231 232 235 218 216 242 257 257 239 232 234 241 247 251 246 251 252 253 260 275 287 286 291 294 289 296 302 355 323 307 305 298 298 301 301 299 299
244 241 236 233 237 231 210 210 227 244 258 256 255 258 262 256 248 251 254 261 279 293 278 279 279 286 296 330 14 310 302 298 295 298 300 302 301 298
240 243 239 227 242 255 231 227 232 229 234 246 259 271 275 272 258 258 263 266 273 265 267 277 275 282 291 282 231 261 276 282 283 288 295 296 293 288
228 230 241 234 106 270 235 226 226 225 198 224 294 305 330 304 273 253 249 250 264 261 258 272 279 286 281 270 248 229 254 267 273 276 282 288 287 278
226 216 197 243 175 250 242 233 234 235 233 225 236 235 244 221 222 241 244 252 262 263 246 262 272 280 274 263 267 270 258 249 254 263 270 274 281 274
235 232 210 175 204 233 261 251 244 256 240 239 241 238 238 238 232 240 247 253 259 264 255 249 267 267 270 279 280 277 279 278 261 255 250 256 265 269
238 241 215 178 202 230 249 248 237 246 241 238 241 238 239 238 242 246 252 253 258 268 264 253 261 260 265 271 279 279 279 280 278 274 265 246 251 256
239 227 197 191 211 221 213 217 228 236 235 237 242 249 252 252 249 247 250 260 265 264 260 253 256 258 261 267 274 280 284 281 273 272 271 273 267 263
228 200 194 200 221 239 224 217 231 237 237 239 248 254 252 248 244 246 246 247 252 258 254 257 260 258 261 267 270 273 274 273 272 273 273 272 269 262
220 220 222 219 227 231 231 234 235 228 230 239 241 245 247 244 244 243 245 249 252 258 259 261 268 264 263 270 267 269 272 269 270 270 270 269 267 267
216 223 227 230 235 238 237 236 237 236 237 240 240 241 243 246 247 244 244 248 255 259 259 257 254 261 265 264 260 267 271 273 276 272 268 269 269 271
219 227 230 233 236 238 239 241 244 241 238 240 242 240 240 243 247 250 250 253 259 260 259 256 250 250 261 269 257 236 265 275 274 268 265 265 270 276
226 228 230 234 236 237 238 239 243 242 238 239 242 243 241 243 246 251 253 257 262 265 264 258 255 256 261 271 277 270 242 257 264 268 269 268 271 276
232 235 238 237 237 238 238 238 239 242 240 239 242 243 241 243 247 250 253 254 257 261 262 263 263 264 270 273 271 269 263 240 259 268 275 270 271 269
240 242 244 245 240 240 241 240 241 242 242 240 242 243 242 243 246 249 251 251 253 258 266 271 277 263 257 260 266 274 279 274 255 259 265 259 262 268
237 241 244 242 241 238 238 239 241 244 244 244 243 240 242 246 249 251 254 255 256 257 261 265 267 264 262 261 266 275 283 289 286 276 269 258 253 263
Height
1529 1529 1529 1529 1529 1529 1529 1529 1531 1529 1529 1529 1528 1527 1527 1527 1526 1526 1526 1525 1524 1523 1522 1521 1520 1519 1518 1517 1516 1514 1512 1511 1512 1512 1512 1511 1510 1508
1527 1527 1527 1528 1528 1527 1527 1527 1528 1528 1528 1527 1527 1526 1525 1525 1524 1524 1524 1523 1522 1522 1521 1519 1518 1517 1516 1515 1514 1511 1508 1508 1509 1510 1510 1510 1509 1508
1525 1526 1526 1526 1526 1526 1526 1526 1526 1526 1526 1526 1525 1525 1524 1523 1523 1523 1522 1522 1521 1520 1519 1518 1517 1516 1515 1514 1512 1510 1508 1507 1508 1509 1509 1509 1508 1507
1524 1524 1524 1524 1524 1524 1524 1524 1524 1524 1524 1524 1524 1523 1522 1522 1521 1521 1521 1520 1520 1518 1517 1517 1516 1515 1513 1513 1511 1510 1509 1508 1508 1508 1508 1507 1507 1506
1522 1522 1522 1522 1522 1522 1522 1522 1522 1522 1522 1522 1522 1521 1521 1520 1520 1519 1519 1519 1518 1517 1516 1515 1514 1513 1512 1511 1510 1510 1509 1508 1508 1507 1507 1506 1505 1505
1519 1519 1520 1520 1520 1520 1520 1520 1520 1520 1520 1520 1520 1520 1519 1518 1518 1518 1518 1517 1517 1516 1515 1513 1513 1512 1511 1510 1509 1508 1508 1507 1506 1506 1505 1505 1504 1503
1516 1516 1517 1517 1517 1517 1517 1517 1518 1518 1518 1518 1518 1518 1518 1517 1517 1516 1516 1515 1515 1514 1513 1512 1511 1510 1509 1509 1508 1507 1506 1505 1505 1504 1504 1503 1502 1502
1514 1514 1514 1514 1514 1514 1514 1514 1515 1515 1516 1516 1516 1516 1516 1515 1515 1515 1515 1514 1513 1513 1511 1511 1510 1509 1508 1507 1506 1505 1504 1503 1503 1502 1501 1501 1500 1499
1512 1511 1511 1511 1511 1511 1511 1511 1512 1512 1513 1514 1514 1514 1514 1513 1513 1513 1512 1512 1511 1510 1509 1509 1508 1507 1506 1505 1504 1503 1502 1501 1501 1500 1499 1498 1497 1497
1509 1509 1509 1508 1508 1508 1509 1509 1510 1510 1510 1510 1511 1511 1511 1511 1510 1510 1510 1510 1509 1508 1508 1507 1506 1505 1504 1503 1502 1501 1500 1499 1498 1497 1496 1496 1495 1494
1506 1506 1506 1506 1505 1505 1506 1506 1507 1507 1507 1507 1507 1507 1507 1507 1507 1507 1507 1507 1506 1506 1505 1505 1504 1502 1501 1500 1500 1499 1497 1497 1496 1495 1494 1493 1492 1491
1503 1503 1503 1503 1503 1503 1503 1504 1504 1504 1504 1504 1504 1504 1504 1504 1504 1504 1504 1505 1504 1504 1502 1502 1501 1500 1499 1498 1497 1496 1495 1494 1493 1492 1491 1491 1490 1489
1501 1500 1500 1500 1500 1500 1500 1501 1501 1501 1502 1502 1502 1502 1501 1501 1501 1501 1501 1501 1501 1501 1500 1499 1499 1498 1498 1496 1495 1494 1493 1492 1491 1489 1489 1488 1487 1486
1498 1498 1497 1497 1497 1497 1497 1497 1498 1498 1499 1499 1499 1499 1499 1498 1498 1498 1498 1498 1498 1498 1497 1497 1496 1496 1495 1494 1493 1491 1490 1489 1488 1487 1486 1485 1484 1483
1494 1494 1494 1494 1494 1494 1494 1494 1495 1495 1495 1495 1496 1496 1496 1495 1495 1495 1495 1495 1494 1494 1494 1493 1493 1493 1492 1491 1490 1488 1487 1486 1485 1484 1483 1482 1481 1480
1491 1491 1491 1491 1490 1490 1490 1491 1491 1492 1492 1492 1492 1492 1492 1492 1492 1491 1491 1491 1491 1490 1490 1490 1489 1489 1488 1487 1486 1485 1484 1483 1482 1481 1480 1479 1478 1477
1487 1487 1487 1487 1487 1487 1487 1487 1488 1488 1488 1488 1488 1488 1488 1488 1488 1488 1488 1488 1487 1487 1486 1486 1485 1485 1484 1484 1482 1482 1481 1480 1479 1478 1477 1475 1474 1474
1483 1483 1483 1483 1483 1483 1483 1483 1484 1484 1484 1484 1484 1484 1485 1485 1485 1485 1484 1484 1484 1483 1483 1482 1481 1481 1480 1479 1479 1478 1477 1476 1475 1474 1473 1472 1470 1470
1478 1478 1478 1478 1479 1479 1479 1479 1479 1480 1480 1480 1480 1480 1480 1480 1480 1480 1480 1480 1480 1479 1479 1478 1478 1477 1477 1476 1474 1474 1473 1472 1471 1470 1469 1468 1467 1466
1472 1473 1473 1474 1474 1474 1475 1475 1475 1476 1476 1476 1476 1476 1476 1476 1476 1476 1476 1476 1475 1475 1474 1474 1474 1473 1473 1472 1471 1470 1469 1468 1467 1466 1465 1463 1462 1462
1468 1468 1468 1469 1469 1470 1470 1471 1471 1471 1471 1471 1471 1471 1471 1471 1471 1471 1471 1471 1471 1471 1470 1469 1469 1469 1468 1468 1467 1465 1465 1464 1463 1462 1461 1459 1458 1457
1463 1463 1464 1464 1465 1465 1465 1466 1466 1466 1466 1466 1466 1466 1466 1466 1466 1466 1466 1466 1466 1466 1465 1465 1464 1464 1464 1463 1462 1461 1460 1459 1458 1458 1457 1456 1455 1453
1459 1459 1459 1460 1460 1460 1461 1461 1461 1461 1461 1461 1461 1461 1461 1461 1461 1461 1461 1461 1461 1461 1460 1460 1459 1459 1459 1458 1458 1457 1456 1455 1454 1453 1452 1451 1451 1450